Vorticity
6 7 8 8 9 9 9 9 9 9 8 8 8 8 9 9 10 12 13 15 15 14 13 12 10 9 8 7 7 7 8 8 9 10 11 11 11 10 9 8 8 8 9 9 9 8 7 6 5 5 6 9 15 18 18 15 11 7 3 -0 -2 -2 0 4 7 9 10 10 8
7 8 9 9 9 9 9 9 8 8 8 8 8 8 8 9 9 10 12 14 15 15 14 14 12 11 9 8 8 8 8 8 8 9 10 11 11 11 11 10 9 8 8 8 9 9 9 7 5 4 4 5 8 12 17 19 18 14 9 3 0 -3 -4 -2 2 4 7 9 9
8 9 9 9 9 9 8 8 8 8 7 7 7 8 8 9 9 10 11 12 13 14 15 15 14 13 11 10 8 8 8 8 8 9 9 10 11 12 12 12 11 10 9 8 8 9 10 10 8 6 5 4 5 8 12 16 20 19 15 9 6 2 -1 -4 -4 -1 2 5 6
9 9 10 10 9 9 9 9 8 8 7 7 7 7 8 8 9 9 9 10 11 13 15 15 15 14 13 11 10 9 8 8 8 8 9 9 10 11 12 13 12 12 11 9 8 9 9 11 11 10 8 6 5 7 9 11 16 18 17 15 11 8 5 -1 -4 -5 -2 0 1
9 10 10 10 10 9 9 8 8 8 8 7 7 7 8 8 8 9 9 10 11 12 13 14 14 14 14 13 11 10 9 8 8 9 9 9 10 10 11 12 13 13 12 11 10 9 9 10 11 11 11 9 7 7 7 8 12 16 17 16 14 13 11 6 1 -2 -4 -4 -2
9 10 11 11 10 10 9 8 8 8 8 8 8 8 8 8 8 9 9 10 10 10 11 13 14 14 14 14 13 12 10 9 9 9 9 9 9 10 11 12 12 13 13 13 12 11 10 9 10 10 11 10 9 8 8 7 10 13 16 16 14 14 15 13 9 4 -0 -3 -3
9 10 11 11 10 10 9 8 8 8 8 8 8 8 9 9 9 9 9 8 9 10 11 12 13 13 14 14 14 13 12 10 9 9 9 9 9 10 10 11 11 12 13 13 13 13 12 10 10 9 9 10 9 9 8 8 8 10 13 16 15 14 15 17 16 12 7 2 -1
9 10 11 12 11 10 9 9 8 8 8 9 9 10 10 10 10 10 10 10 11 11 11 11 12 13 13 14 14 14 13 12 10 10 9 9 9 10 10 10 11 11 11 12 13 14 14 13 11 10 9 9 8 8 8 8 8 9 11 14 15 14 13 14 18 18 15 9 5
9 10 11 11 10 10 9 9 8 9 9 9 10 11 11 11 12 12 12 13 12 11 11 12 12 12 13 14 15 15 14 14 12 11 10 9 9 10 10 10 11 11 11 11 12 13 14 14 14 12 11 10 8 7 7 7 7 8 9 11 13 14 13 10 14 18 21 18 11
8 9 10 11 10 9 9 8 8 8 9 9 10 10 11 12 12 13 14 13 12 12 13 14 13 13 13 14 14 15 15 14 13 12 11 10 10 10 10 10 10 10 10 10 11 11 13 14 15 15 14 12 10 9 7 7 7 7 8 9 11 12 13 11 10 13 18 23 20
8 8 9 10 9 9 8 8 8 8 8 8 9 9 9 10 11 12 13 12 13 14 15 14 13 13 13 13 13 14 14 15 14 13 12 11 10 10 10 10 11 11 11 10 10 10 11 12 14 15 15 15 14 12 10 8 7 7 7 7 8 10 12 13 11 10 12 18 23
8 8 8 9 9 8 8 7 7 7 7 7 7 7 7 8 9 9 10 12 13 14 14 14 14 14 13 13 13 13 14 14 14 14 13 12 11 11 10 10 11 11 11 11 10 10 10 10 12 14 15 16 16 15 14 12 10 8 6 5 6 7 9 12 13 12 10 11 17
7 7 7 7 8 8 8 7 6 5 5 5 5 5 5 5 6 6 8 9 11 11 12 13 14 14 14 13 13 13 13 14 14 14 14 13 12 11 11 11 11 11 11 11 11 10 10 9 10 11 13 14 16 17 17 17 15 12 9 6 5 5 6 9 12 14 13 11 11
7 7 7 6 7 7 7 6 5 4 4 3 3 3 3 3 4 4 5 6 8 9 10 11 13 14 14 14 13 13 13 13 13 14 14 13 12 12 11 11 11 11 11 12 11 11 10 9 9 9 10 11 13 15 17 19 20 19 15 10 6 4 4 5 9 12 14 14 12
7 7 6 6 6 6 6 5 5 4 4 3 3 4 4 3 3 3 3 4 6 7 8 9 11 13 14 14 14 13 13 13 13 13 13 13 13 12 11 11 11 11 12 12 12 12 11 10 9 8 8 8 10 12 15 17 21 22 22 18 12 7 4 3 5 8 13 16 15
6 6 6 6 6 6 6 6 6 5 5 5 5 5 5 5 4 4 3 4 4 5 7 9 10 11 12 13 14 13 13 13 13 13 13 13 12 12 11 11 11 11 11 12 12 13 12 11 9 8 8 7 7 9 11 13 17 21 24 24 20 14 9 4 3 5 8 13 16
5 5 5 6 6 7 7 7 8 8 8 8 8 7 7 7 6 5 5 4 5 5 6 8 9 9 10 12 13 13 13 13 13 13 13 12 12 12 11 11 11 11 11 11 12 13 13 12 11 9 8 7 6 7 8 10 13 17 21 24 24 21 16 10 6 3 3 6 11
5 5 5 6 6 7 8 9 9 9 9 9 9 9 9 8 8 7 7 6 6 6 6 7 8 9 10 10 12 13 13 14 14 14 13 12 12 11 11 11 10 10 10 11 11 12 13 13 12 11 9 7 6 6 6 7 9 12 16 21 24 25 23 18 13 8 4 2 5
4 4 4 5 6 7 8 9 9 9 9 9 9 9 9 8 8 8 8 7 7 7 6 6 7 8 9 10 10 12 13 14 14 14 14 13 12 12 11 11 10 10 10 10 11 11 12 13 13 12 11 9 7 6 6 6 7 9 12 16 21 25 26 25 21 15 10 6 4
4 4 4 4 5 6 7 8 8 8 7 7 6 6 6 7 7 8 8 8 8 8 7 6 6 7 8 9 10 11 13 14 14 14 14 13 13 12 11 11 10 10 10 10 10 11 11 13 13 13 12 11 9 7 6 5 6 7 9 11 15 20 25 28 27 24 19 14 10
4 4 4 4 4 5 5 6 6 6 5 4 3 2 3 4 4 5 6 7 8 8 7 7 6 6 7 8 9 10 12 13 14 14 14 14 13 13 12 11 10 10 10 9 10 10 11 11 13 13 13 12 10 8 7 6 6 6 7 8 10 14 19 24 27 27 26 22 18
4 4 4 4 4 4 4 5 4 4 3 1 0 -0 -0 0 1 3 5 6 6 7 7 7 6 6 6 6 8 9 10 12 13 14 14 14 14 13 12 12 11 10 9 9 9 10 10 11 12 13 14 14 12 10 8 6 6 6 7 7 8 10 12 17 22 25 27 26 24
4 4 4 4 4 4 4 4 4 3 2 1 0 -1 -1 -1 -1 1 2 4 5 6 7 7 6 6 5 5 6 7 9 10 12 13 14 14 13 13 13 12 11 10 9 9 9 9 9 10 11 12 13 14 13 12 10 8 7 6 7 7 8 8 9 11 15 19 22 25 25
3 3 4 4 4 4 4 4 3 3 2 2 1 1 0 0 -0 -0 1 2 4 6 7 7 6 6 5 5 5 6 7 9 11 12 13 14 13 13 13 13 12 11 10 9 9 9 9 9 9 11 12 13 14 13 11 9 8 7 7 7 8 8 9 9 11 13 16 20 22
3 3 3 3 4 4 4 4 3 3 2 2 2 2 2 2 2 2 1 2 3 5 6 7 6 6 5 5 4 5 6 7 9 11 12 13 13 13 13 13 12 11 10 9 9 9 8 9 9 9 10 12 13 13 12 11 9 8 7 7 7 8 9 9 9 10 12 14 16
4 3 2 2 2 3 3 3 3 3 2 2 2 2 3 4 4 4 3 2 3 4 5 6 6 6 6 5 5 4 5 6 8 10 11 12 13 13 13 13 12 11 11 10 9 9 8 8 8 9 9 11 12 13 13 12 11 9 8 8 7 8 8 9 10 10 10 11 12
5 4 3 1 1 1 2 2 3 3 2 2 2 2 3 3 4 5 5 4 3 3 4 5 6 6 6 6 5 4 4 5 7 9 10 12 13 13 13 13 12 11 11 10 9 9 8 8 8 8 8 9 11 12 13 13 12 11 10 9 8 8 8 9 10 10 10 10 10
5 5 4 2 1 0 0 1 2 2 2 2 2 2 2 3 4 5 6 5 4 3 3 3 5 6 6 6 6 5 5 5 6 8 10 11 13 13 14 13 12 11 11 10 10 9 8 8 8 7 7 8 9 10 12 13 13 12 11 10 9 9 9 9 9 10 10 10 10
3 4 5 5 3 1 0 0 1 1 2 2 2 2 2 3 4 5 6 6 5 4 3 2 3 5 6 6 7 6 6 5 6 7 9 11 12 14 14 14 13 11 11 10 10 9 9 8 8 7 7 7 8 9 10 12 13 13 12 11 10 10 9 10 10 10 10 10 10
1 2 4 6 6 4 3 1 1 1 2 2 2 2 2 3 4 5 6 7 6 5 4 2 3 4 5 7 8 8 8 7 7 7 8 10 12 13 14 14 13 12 11 10 9 9 8 8 8 8 7 7 7 7 8 10 12 12 12 12 11 10 10 10 10 10 10 10 10
1 1 2 3 5 6 5 4 3 2 2 2 2 2 2 3 4 4 5 7 7 6 5 3 2 3 4 7 8 9 10 9 8 8 8 10 12 13 14 14 13 13 11 10 9 9 8 8 8 8 7 7 6 6 7 8 10 11 12 12 11 11 10 11 11 11 11 11 10
2 1 1 1 2 3 5 5 4 4 3 3 3 3 4 5 5 6 6 7 7 6 5 3 2 2 4 6 8 11 12 12 10 9 9 10 12 13 14 14 14 13 12 11 10 9 8 8 8 8 7 7 6 6 6 6 8 10 11 12 11 11 11 11 11 11 11 11 11
3 2 2 2 1 1 2 3 4 4 4 3 3 4 6 8 10 10 9 8 7 6 4 3 3 3 4 6 9 11 13 13 12 11 10 10 12 13 14 15 15 14 13 12 10 9 8 8 8 8 7 7 6 5 5 5 6 8 9 11 11 11 11 11 11 11 11 11 11
4 4 3 3 2 2 2 3 4 5 5 3 2 4 7 12 14 14 13 10 8 6 4 3 4 5 6 7 9 11 13 14 13 12 11 11 12 13 15 16 15 14 13 12 11 10 9 8 8 8 8 7 6 6 5 5 5 5 7 9 10 11 11 11 11 11 11 11 11
5 5 5 5 4 4 4 5 6 7 7 6 4 5 9 14 16 16 14 12 9 6 4 2 4 5 7 8 10 11 13 14 14 13 12 12 12 14 16 17 16 15 14 13 12 11 10 9 8 8 8 7 6 6 5 5 4 4 5 6 8 9 10 10 11 11 12 12 12
7 8 8 8 8 7 7 8 9 11 12 11 9 10 12 15 16 16 14 12 10 6 4 3 4 6 7 9 10 12 13 14 14 13 13 12 13 14 16 18 17 16 15 14 13 12 11 9 9 8 8 8 7 6 5 5 5 3 3 3 5 7 9 9 10 11 12 12 12
14 14 14 14 14 13 13 12 14 15 17 17 16 16 16 17 16 14 12 11 9 6 5 4 5 7 9 10 11 12 13 14 14 14 13 13 14 15 16 17 17 16 16 15 13 13 12 10 9 9 9 9 8 6 6 6 5 4 3 2 3 5 7 8 9 10 11 12 12
22 22 22 21 20 20 19 19 20 21 21 22 22 21 20 17 14 11 10 9 8 7 6 6 7 8 10 11 12 13 13 14 14 14 14 14 15 15 15 15 15 15 15 15 14 13 13 12 10 9 9 9 8 7 6 6 6 5 3 2 2 3 5 7 8 9 10 11 12
27 26 25 25 24 24 23 23 24 24 24 24 25 23 20 15 11 9 8 8 8 8 7 7 8 10 11 12 12 13 14 15 15 15 15 15 15 15 15 14 14 14 14 14 14 14 14 13 11 10 9 9 9 8 7 7 7 6 5 4 3 3 4 6 7 8 9 10 12
22 21 21 21 21 22 22 22 22 21 21 22 22 20 17 12 8 6 6 7 7 8 9 9 10 12 13 13 13 14 15 15 16 16 15 15 15 15 15 15 13 12 13 14 14 14 15 15 13 11 9 9 9 9 8 8 7 8 8 8 6 5 5 5 6 7 8 9 11
12 12 13 13 14 14 15 14 14 14 14 15 15 15 13 10 7 6 5 6 7 9 10 11 13 14 14 14 14 14 14 15 15 15 15 15 15 15 16 15 13 12 12 13 13 14 15 16 15 13 10 9 8 8 9 9 9 9 10 10 11 10 8 6 6 6 6 8 10
Height
3036 3035 3034 3033 3031 3030 3029 3028 3027 3026 3025 3025 3024 3023 3023 3022 3022 3021 3021 3021 3021 3020 3020 3020 3019 3019 3019 3019 3019 3019 3019 3018 3018 3018 3018 3018 3018 3018 3018 3019 3019 3019 3019 3019 3020 3020 3021 3021 3022 3022 3022 3023 3023 3024 3025 3025 3026 3026 3027 3028 3028 3029 3029 3029 3030 3031 3031 3032 3033
3036 3034 3033 3032 3031 3029 3028 3027 3026 3025 3024 3024 3023 3022 3022 3021 3021 3021 3020 3020 3020 3019 3019 3019 3018 3018 3018 3018 3017 3017 3018 3018 3018 3018 3017 3017 3017 3017 3017 3018 3018 3018 3018 3019 3019 3019 3019 3020 3020 3021 3021 3021 3022 3023 3024 3024 3025 3025 3026 3027 3027 3028 3028 3029 3029 3030 3030 3031 3032
3035 3033 3032 3031 3030 3028 3027 3026 3025 3024 3023 3022 3022 3021 3021 3020 3020 3019 3019 3019 3019 3018 3018 3018 3017 3017 3017 3016 3016 3016 3016 3017 3017 3017 3017 3017 3016 3016 3016 3016 3017 3017 3017 3017 3017 3018 3018 3018 3019 3019 3020 3020 3021 3021 3022 3023 3024 3024 3025 3025 3026 3026 3027 3027 3028 3029 3029 3030 3031
3034 3032 3031 3030 3029 3027 3026 3025 3024 3023 3022 3021 3021 3020 3020 3019 3019 3018 3018 3018 3017 3017 3017 3017 3016 3016 3016 3016 3015 3015 3015 3015 3016 3016 3016 3016 3016 3016 3016 3015 3016 3016 3016 3016 3016 3016 3017 3017 3017 3018 3018 3019 3019 3020 3021 3021 3022 3023 3023 3023 3024 3025 3026 3026 3027 3028 3029 3029 3030
3033 3031 3030 3029 3028 3026 3025 3024 3023 3022 3021 3021 3020 3019 3019 3018 3018 3017 3017 3017 3016 3016 3016 3016 3015 3015 3015 3014 3014 3014 3014 3014 3014 3014 3015 3015 3015 3015 3014 3014 3014 3014 3014 3015 3015 3015 3015 3016 3016 3016 3017 3017 3018 3018 3019 3020 3021 3021 3021 3022 3022 3023 3024 3025 3026 3027 3027 3028 3029
3031 3031 3029 3028 3027 3026 3024 3023 3022 3021 3020 3020 3019 3018 3018 3017 3017 3016 3016 3016 3015 3015 3015 3014 3014 3014 3013 3013 3013 3013 3013 3013 3013 3013 3013 3013 3014 3013 3013 3013 3013 3013 3013 3013 3013 3014 3014 3014 3015 3015 3015 3016 3016 3017 3017 3018 3018 3019 3020 3020 3021 3021 3022 3023 3024 3025 3026 3027 3028
3030 3029 3028 3027 3026 3025 3023 3022 3021 3020 3019 3019 3018 3017 3016 3016 3016 3015 3015 3014 3014 3014 3013 3013 3013 3012 3012 3012 3012 3012 3011 3011 3011 3011 3012 3012 3012 3012 3012 3012 3012 3012 3012 3012 3012 3012 3012 3013 3013 3013 3014 3014 3015 3015 3016 3016 3016 3017 3018 3019 3019 3019 3020 3021 3021 3022 3023 3024 3026
3029 3028 3027 3026 3025 3024 3023 3021 3021 3019 3018 3017 3017 3016 3016 3015 3014 3014 3013 3013 3013 3012 3012 3012 3011 3011 3011 3011 3011 3010 3010 3010 3010 3010 3010 3010 3011 3011 3011 3011 3011 3011 3011 3011 3011 3011 3011 3011 3011 3012 3012 3012 3013 3013 3014 3014 3015 3015 3016 3016 3017 3017 3018 3018 3019 3020 3021 3021 3022
3028 3027 3026 3025 3024 3023 3022 3021 3020 3019 3017 3016 3016 3015 3015 3014 3013 3013 3012 3012 3011 3011 3011 3011 3010 3010 3010 3009 3009 3009 3009 3009 3009 3009 3009 3009 3009 3009 3009 3010 3010 3010 3009 3009 3009 3010 3010 3010 3010 3010 3011 3011 3011 3012 3012 3012 3013 3013 3014 3014 3015 3016 3016 3016 3017 3018 3018 3019 3020
3026 3026 3025 3024 3023 3022 3021 3020 3019 3018 3017 3016 3015 3014 3013 3013 3012 3011 3011 3011 3010 3010 3010 3009 3009 3009 3008 3008 3008 3008 3007 3007 3007 3007 3007 3007 3007 3007 3008 3008 3008 3008 3008 3008 3008 3008 3008 3008 3009 3009 3009 3009 3010 3010 3010 3011 3011 3011 3012 3012 3013 3014 3014 3014 3015 3015 3016 3016 3017
3025 3024 3023 3023 3022 3021 3020 3019 3018 3017 3016 3015 3014 3013 3012 3012 3011 3011 3010 3009 3009 3008 3008 3008 3007 3007 3007 3006 3006 3006 3006 3006 3006 3006 3006 3006 3006 3006 3006 3006 3006 3006 3007 3007 3007 3007 3007 3007 3007 3007 3007 3008 3008 3008 3008 3009 3009 3010 3010 3010 3011 3011 3012 3012 3012 3013 3013 3014 3015
3023 3022 3022 3021 3021 3020 3019 3018 3017 3016 3015 3014 3013 3012 3011 3011 3010 3010 3009 3008 3008 3007 3007 3006 3006 3006 3005 3005 3005 3005 3005 3005 3005 3004 3004 3004 3004 3004 3004 3005 3005 3005 3005 3005 3005 3005 3005 3005 3005 3006 3006 3006 3006 3006 3006 3007 3007 3008 3008 3008 3009 3009 3010 3010 3011 3011 3011 3011 3012
3021 3021 3020 3020 3019 3019 3018 3017 3016 3015 3014 3013 3012 3011 3011 3010 3009 3008 3008 3007 3006 3006 3006 3005 3005 3004 3004 3004 3003 3003 3003 3003 3003 3003 3003 3003 3003 3003 3003 3003 3003 3003 3003 3004 3004 3004 3004 3004 3004 3004 3004 3004 3004 3005 3005 3005 3006 3006 3006 3006 3007 3007 3007 3008 3009 3009 3009 3009 3010
3020 3019 3019 3018 3018 3017 3016 3016 3015 3014 3013 3012 3011 3010 3009 3009 3008 3007 3007 3006 3006 3005 3004 3004 3003 3003 3002 3002 3002 3002 3002 3001 3001 3001 3001 3001 3001 3001 3001 3001 3001 3001 3001 3002 3002 3002 3002 3002 3002 3002 3002 3002 3002 3003 3003 3003 3003 3004 3004 3005 3005 3005 3005 3005 3006 3007 3007 3008 3008
3018 3018 3017 3017 3016 3016 3015 3014 3014 3013 3012 3011 3010 3009 3009 3008 3007 3006 3006 3005 3004 3004 3003 3003 3002 3002 3001 3001 3001 3000 3000 3000 3000 3000 3000 3000 3000 3000 2999 2999 2999 3000 3000 3000 3000 3000 3000 3000 3000 3000 3001 3001 3001 3001 3001 3001 3001 3002 3002 3002 3002 3003 3003 3003 3003 3004 3005 3006 3006
3016 3016 3016 3015 3015 3014 3014 3013 3012 3012 3011 3010 3009 3008 3007 3007 3006 3005 3005 3004 3003 3003 3002 3001 3001 3001 3000 2999 2999 2999 2998 2998 2998 2998 2998 2998 2998 2998 2998 2998 2998 2998 2998 2998 2998 2998 2998 2999 2999 2999 2999 2999 2999 2999 2999 2999 2999 2999 3000 3000 3000 3001 3001 3001 3001 3002 3003 3004 3004
3015 3014 3014 3013 3013 3012 3012 3011 3011 3010 3010 3009 3008 3007 3006 3006 3005 3004 3003 3003 3002 3001 3001 3000 3000 2999 2999 2998 2998 2997 2997 2996 2996 2996 2996 2996 2996 2996 2996 2996 2996 2996 2996 2996 2996 2996 2996 2997 2997 2997 2997 2997 2997 2997 2997 2997 2997 2997 2997 2998 2998 2998 2999 2999 2999 2999 3000 3001 3002
3013 3012 3012 3012 3011 3011 3011 3010 3009 3009 3008 3008 3007 3006 3006 3005 3004 3003 3002 3001 3001 3000 2999 2999 2998 2998 2997 2997 2996 2996 2996 2995 2995 2995 2995 2995 2995 2995 2995 2994 2994 2994 2994 2994 2994 2995 2995 2995 2995 2995 2995 2995 2995 2995 2995 2995 2995 2995 2995 2996 2996 2996 2996 2997 2997 2997 2998 2999 3000
3011 3011 3010 3010 3010 3009 3009 3008 3008 3007 3007 3006 3006 3005 3004 3004 3003 3002 3001 3000 3000 2999 2998 2997 2997 2996 2996 2995 2995 2994 2994 2994 2993 2993 2993 2993 2993 2993 2993 2993 2993 2993 2993 2993 2993 2993 2993 2993 2993 2993 2993 2993 2993 2993 2993 2993 2993 2993 2993 2994 2994 2994 2994 2995 2995 2995 2996 2996 2997
3009 3009 3009 3008 3008 3008 3007 3007 3006 3006 3006 3005 3004 3004 3003 3002 3002 3001 3000 2999 2998 2998 2997 2996 2995 2995 2994 2994 2993 2993 2992 2992 2992 2991 2991 2991 2991 2991 2991 2991 2991 2991 2991 2991 2991 2991 2991 2991 2991 2991 2991 2991 2991 2991 2991 2991 2991 2991 2991 2992 2992 2992 2992 2993 2993 2993 2993 2994 2995
3007 3007 3007 3006 3006 3006 3006 3006 3005 3005 3004 3004 3003 3002 3002 3001 3001 3000 2999 2998 2997 2996 2996 2995 2994 2993 2993 2992 2991 2991 2991 2991 2990 2990 2990 2989 2989 2989 2989 2989 2989 2989 2989 2989 2989 2989 2989 2989 2990 2990 2990 2990 2990 2990 2989 2989 2989 2990 2990 2990 2990 2990 2991 2991 2991 2991 2991 2991 2992
3005 3005 3005 3005 3004 3004 3004 3004 3003 3003 3002 3002 3001 3001 3000 3000 2999 2998 2998 2997 2996 2995 2994 2994 2993 2992 2991 2991 2990 2990 2989 2989 2988 2988 2988 2987 2987 2987 2987 2987 2987 2987 2987 2987 2987 2987 2987 2988 2988 2988 2988 2988 2988 2988 2988 2988 2988 2988 2988 2988 2988 2988 2989 2989 2989 2989 2989 2989 2990
3003 3003 3003 3003 3002 3002 3002 3002 3001 3001 3001 3000 3000 2999 2999 2998 2998 2997 2996 2996 2995 2994 2993 2992 2991 2991 2990 2989 2988 2988 2987 2987 2987 2986 2986 2986 2986 2986 2986 2986 2986 2986 2986 2986 2986 2986 2986 2986 2986 2986 2986 2986 2986 2986 2986 2986 2986 2986 2986 2986 2986 2986 2987 2987 2987 2987 2987 2987 2987
3001 3001 3001 3001 3000 3000 3000 2999 2999 2999 2998 2998 2998 2997 2997 2996 2996 2996 2995 2994 2993 2992 2991 2991 2990 2989 2988 2988 2987 2986 2986 2985 2985 2985 2984 2984 2984 2984 2984 2984 2984 2984 2984 2984 2984 2984 2984 2984 2984 2984 2984 2984 2984 2984 2984 2984 2984 2984 2985 2985 2985 2985 2985 2985 2985 2985 2986 2986 2986
2999 2999 2998 2998 2998 2998 2997 2997 2997 2996 2996 2996 2996 2995 2995 2995 2994 2994 2993 2992 2991 2991 2990 2989 2988 2987 2987 2986 2985 2985 2984 2984 2983 2983 2982 2982 2982 2981 2981 2981 2981 2982 2982 2982 2982 2982 2982 2982 2982 2982 2982 2982 2982 2983 2983 2983 2982 2983 2983 2983 2983 2983 2983 2983 2983 2984 2984 2984 2984
2996 2996 2996 2996 2996 2995 2995 2995 2994 2994 2994 2993 2993 2993 2992 2992 2992 2991 2991 2990 2990 2989 2988 2987 2986 2986 2985 2984 2984 2983 2982 2982 2981 2981 2981 2980 2980 2980 2980 2980 2980 2980 2980 2980 2980 2980 2980 2980 2980 2980 2981 2981 2981 2981 2981 2981 2981 2981 2981 2981 2981 2981 2981 2982 2982 2982 2982 2982 2982
2994 2994 2994 2993 2993 2993 2992 2992 2992 2991 2991 2991 2991 2990 2990 2990 2989 2989 2988 2988 2987 2987 2986 2985 2984 2984 2983 2982 2982 2981 2981 2980 2979 2979 2979 2978 2978 2978 2977 2977 2977 2977 2978 2978 2978 2978 2978 2978 2978 2979 2979 2979 2979 2979 2979 2979 2979 2979 2979 2979 2979 2979 2980 2980 2980 2980 2980 2981 2981
2991 2991 2991 2991 2991 2990 2990 2990 2989 2989 2988 2988 2988 2987 2987 2987 2987 2986 2986 2986 2985 2984 2984 2983 2982 2982 2981 2980 2980 2979 2978 2978 2977 2977 2976 2976 2976 2976 2976 2976 2976 2976 2976 2976 2976 2976 2976 2976 2976 2977 2977 2977 2977 2977 2977 2977 2977 2977 2977 2977 2977 2977 2978 2978 2978 2978 2979 2979 2979
2988 2988 2988 2988 2988 2988 2987 2987 2986 2986 2986 2986 2985 2985 2985 2984 2984 2983 2983 2983 2982 2982 2981 2981 2980 2980 2979 2978 2977 2977 2976 2976 2975 2975 2975 2974 2974 2974 2973 2973 2973 2973 2973 2973 2974 2974 2974 2974 2974 2975 2975 2975 2975 2975 2975 2975 2975 2975 2975 2975 2975 2976 2976 2976 2976 2976 2977 2977 2977
2985 2985 2985 2985 2985 2985 2984 2984 2984 2983 2983 2983 2982 2982 2982 2981 2981 2981 2980 2980 2980 2979 2979 2978 2978 2977 2976 2976 2975 2974 2974 2973 2973 2972 2972 2972 2972 2971 2971 2971 2971 2971 2971 2971 2971 2972 2972 2972 2972 2972 2973 2973 2973 2973 2973 2973 2973 2973 2973 2973 2973 2974 2974 2974 2974 2975 2975 2975 2976
2982 2982 2981 2981 2981 2981 2981 2981 2981 2981 2980 2980 2980 2979 2979 2979 2978 2978 2977 2977 2976 2976 2976 2976 2975 2974 2974 2973 2973 2972 2971 2971 2971 2970 2970 2970 2969 2969 2969 2969 2969 2969 2969 2969 2969 2969 2970 2970 2970 2970 2971 2971 2971 2971 2972 2971 2971 2971 2971 2971 2971 2971 2972 2972 2972 2973 2973 2973 2974
2979 2978 2978 2978 2978 2978 2978 2978 2978 2978 2977 2977 2977 2977 2976 2976 2975 2975 2974 2974 2974 2973 2973 2973 2972 2971 2971 2971 2970 2970 2969 2968 2968 2967 2967 2967 2967 2967 2966 2966 2966 2967 2967 2967 2967 2967 2967 2968 2968 2968 2969 2969 2969 2970 2970 2970 2970 2970 2970 2970 2970 2970 2970 2970 2971 2971 2971 2971 2972
2976 2975 2975 2975 2975 2975 2975 2975 2975 2975 2975 2974 2974 2974 2973 2973 2972 2971 2971 2971 2971 2970 2970 2970 2969 2969 2968 2968 2967 2967 2966 2966 2965 2965 2965 2964 2964 2964 2964 2964 2964 2965 2965 2965 2965 2965 2965 2966 2966 2966 2966 2967 2967 2968 2968 2968 2968 2968 2968 2968 2968 2968 2968 2968 2969 2969 2969 2970 2970
2972 2972 2972 2972 2971 2971 2971 2971 2971 2971 2971 2971 2971 2971 2970 2970 2969 2968 2968 2967 2967 2967 2967 2967 2966 2966 2966 2965 2965 2964 2964 2963 2963 2962 2962 2961 2961 2961 2961 2962 2962 2962 2962 2962 2963 2963 2963 2963 2963 2964 2964 2965 2965 2966 2966 2966 2966 2966 2966 2966 2966 2966 2966 2966 2967 2967 2967 2968 2968
2969 2969 2968 2968 2968 2968 2968 2967 2967 2967 2967 2967 2967 2967 2966 2966 2966 2965 2964 2964 2964 2964 2964 2964 2963 2963 2962 2962 2962 2961 2961 2960 2960 2960 2959 2959 2959 2959 2959 2959 2959 2960 2960 2960 2960 2961 2961 2961 2961 2961 2962 2962 2962 2963 2964 2964 2964 2964 2965 2965 2965 2965 2965 2965 2965 2965 2966 2966 2966
2966 2965 2965 2965 2965 2964 2964 2964 2963 2963 2963 2964 2964 2964 2963 2963 2962 2962 2961 2961 2961 2961 2961 2961 2960 2960 2960 2959 2959 2958 2958 2957 2957 2957 2956 2956 2956 2956 2956 2956 2956 2957 2957 2957 2958 2958 2959 2959 2959 2959 2959 2960 2960 2961 2961 2962 2962 2962 2963 2963 2963 2963 2963 2963 2963 2963 2964 2964 2965
2962 2962 2961 2961 2961 2961 2961 2960 2960 2960 2960 2960 2960 2960 2960 2959 2959 2959 2958 2958 2957 2957 2957 2957 2957 2957 2956 2956 2956 2955 2955 2955 2954 2954 2954 2953 2953 2953 2953 2953 2954 2954 2954 2955 2955 2956 2956 2956 2956 2957 2957 2957 2958 2958 2959 2959 2960 2960 2961 2961 2961 2961 2961 2961 2962 2962 2962 2962 2963
2959 2958 2958 2958 2957 2957 2957 2956 2956 2956 2956 2956 2956 2956 2956 2956 2956 2956 2955 2955 2954 2954 2954 2954 2954 2953 2953 2953 2953 2952 2952 2952 2951 2951 2951 2951 2951 2950 2950 2951 2951 2951 2951 2952 2952 2953 2954 2954 2954 2954 2955 2955 2955 2956 2956 2957 2957 2958 2958 2959 2959 2960 2960 2960 2960 2960 2960 2961 2961
2956 2955 2955 2954 2954 2953 2953 2953 2952 2952 2952 2952 2953 2953 2953 2952 2952 2952 2952 2951 2951 2951 2951 2951 2950 2950 2950 2950 2950 2949 2949 2949 2949 2948 2948 2948 2948 2948 2948 2948 2948 2948 2948 2949 2950 2950 2951 2951 2952 2952 2952 2952 2953 2954 2954 2955 2955 2955 2956 2956 2957 2958 2958 2958 2958 2958 2959 2959 2959
2952 2952 2951 2951 2950 2950 2950 2949 2949 2949 2949 2949 2949 2949 2949 2949 2949 2949 2949 2948 2948 2947 2947 2947 2947 2947 2947 2946 2946 2946 2946 2946 2946 2946 2946 2945 2945 2945 2945 2945 2945 2945 2946 2946 2946 2947 2948 2949 2949 2950 2950 2950 2951 2951 2952 2952 2952 2953 2953 2954 2955 2956 2956 2956 2957 2957 2957 2957 2957
2949 2949 2948 2947 2947 2947 2946 2946 2946 2946 2946 2946 2946 2946 2946 2946 2946 2946 2946 2945 2945 2944 2944 2944 2944 2944 2943 2943 2943 2943 2943 2943 2943 2943 2943 2942 2942 2942 2942 2942 2942 2942 2943 2943 2944 2944 2945 2946 2946 2947 2947 2948 2948 2949 2949 2950 2950 2950 2951 2951 2952 2953 2954 2955 2955 2955 2955 2955 2956